| time (UTC) | temp F | wind direction | speed knots | gust knots | rain 1hr in | rain 24hr in | rain mn in | humidity % | barometer mb |
| 20260906183032 | 92 | 225 | 7.0 | 9.6 | 0.00 | 0.00 | 0.00 | 49 | 988.1 |
| 20260906181533 | 90 | 225 | 3.5 | 7.8 | 0.00 | 0.00 | 0.00 | 50 | 988.5 |
| 20260906180031 | 91 | 202 | 0.9 | 9.6 | 0.00 | 0.00 | 0.00 | 52 | 988.7 |
| 20260906174537 | 91 | 257 | 2.6 | 12.2 | 0.00 | 0.00 | 0.00 | 54 | 988.9 |
| 20260906173005 | 90 | 222 | 5.2 | 12.2 | 0.00 | 0.00 | 0.00 | 53 | 989.2 |
| 20260906171503 | 89 | 240 | 4.3 | 10.4 | 0.00 | 0.00 | 0.00 | 55 | 989.5 |
| 20260906170042 | 88 | 163 | 4.3 | 8.7 | 0.00 | 0.00 | 0.00 | 58 | 989.7 |
| 20260906164540 | 88 | 161 | 3.5 | 7.8 | 0.00 | 0.00 | 0.00 | 62 | 989.8 |
| 20260906163020 | 87 | 207 | 3.5 | 7.0 | 0.00 | 0.00 | 0.00 | 64 | 989.8 |
| 20260906161517 | 86 | 211 | 2.6 | 7.8 | 0.00 | 0.00 | 0.00 | 66 | 989.9 |
| 20260906160056 | 85 | 187 | 2.6 | 6.1 | 0.00 | 0.00 | 0.00 | 66 | 989.8 |
| 20260906154554 | 86 | 188 | 3.5 | 7.8 | 0.00 | 0.00 | 0.00 | 66 | 989.6 |
| 20260906153039 | 84 | 184 | 1.7 | 5.2 | 0.00 | 0.00 | 0.00 | 66 | 989.6 |
| 20260906151543 | 83 | 171 | 3.5 | 7.0 | 0.00 | 0.00 | 0.00 | 64 | 989.4 |
| 20260906150020 | 81 | 171 | 2.6 | 6.1 | 0.00 | 0.00 | 0.00 | 58 | 989.4 |
| 20260906144510 | 81 | 184 | 2.6 | 5.2 | 0.00 | 0.00 | 0.00 | 56 | 989.4 |
| 20260906143016 | 80 | 190 | 3.5 | 6.1 | 0.00 | 0.00 | 0.00 | 55 | 989.4 |
| 20260906141507 | 80 | 184 | 4.3 | 6.1 | 0.00 | 0.00 | 0.00 | 55 | 989.4 |
| 20260906140006 | 79 | 187 | 4.3 | 7.0 | 0.00 | 0.00 | 0.00 | 56 | 989.3 |
| 20260906134508 | 79 | 182 | 5.2 | 7.0 | 0.00 | 0.00 | 0.00 | 57 | 989.2 |
| 20260906133009 | 78 | 182 | 2.6 | 4.3 | 0.00 | 0.00 | 0.00 | 54 | 989.0 |
| 20260906131602 | 78 | 188 | 0.0 | 1.7 | 0.00 | 0.00 | 0.00 | 54 | 988.7 |
| 20260906130042 | 78 | 189 | 0.0 | 0.0 | 0.00 | 0.00 | 0.00 | 50 | 988.5 |
| 20260906124539 | 77 | 189 | 0.0 | 0.0 | 0.00 | 0.00 | 0.00 | 49 | 988.3 |
| 20260906123038 | 76 | 189 | 0.0 | 0.0 | 0.00 | 0.00 | 0.00 | 49 | 988.1 |
| 20260906121522 | 76 | 189 | 0.0 | 0.0 | 0.00 | 0.00 | 0.00 | 53 | 987.8 |
| 20260906120020 | 76 | 189 | 0.0 | 0.0 | 0.00 | 0.00 | 0.00 | 55 | 987.7 |
| 20260906114520 | 77 | 190 | 0.0 | 0.0 | 0.00 | 0.00 | 0.00 | 55 | 987.6 |
| 20260906113016 | 77 | 190 | 0.0 | 0.0 | 0.00 | 0.00 | 0.00 | 56 | 987.4 |
| 20260906111511 | 78 | 190 | 0.0 | 0.0 | 0.00 | 0.00 | 0.00 | 58 | 987.3 |
| 20260906110008 | 78 | 190 | 0.0 | 0.0 | 0.00 | 0.00 | 0.00 | 60 | 987.1 |
| 20260906104507 | 78 | 190 | 0.0 | 0.0 | 0.00 | 0.00 | 0.00 | 62 | 987.0 |
| 20260906103102 | 79 | 190 | 0.0 | 0.0 | 0.00 | 0.00 | 0.00 | 63 | 987.0 |
| 20260906101547 | 79 | 190 | 0.0 | 0.0 | 0.00 | 0.00 | 0.00 | 63 | 987.0 |
| 20260906100031 | 79 | 190 | 0.9 | 1.7 | 0.00 | 0.00 | 0.00 | 63 | 986.9 |
| 20260906094526 | 80 | 190 | 0.9 | 3.5 | 0.00 | 0.00 | 0.00 | 63 | 986.9 |
| 20260906093021 | 80 | 190 | 2.6 | 4.3 | 0.00 | 0.00 | 0.00 | 63 | 986.8 |
| 20260906091512 | 80 | 190 | 1.7 | 4.3 | 0.00 | 0.00 | 0.00 | 64 | 986.7 |
| 20260906090032 | 80 | 188 | 2.6 | 3.5 | 0.00 | 0.00 | 0.00 | 64 | 986.6 |
| 20260906084509 | 80 | 187 | 2.6 | 4.3 | 0.00 | 0.00 | 0.00 | 64 | 986.7 |
| 20260906083009 | 80 | 179 | 3.5 | 5.2 | 0.00 | 0.00 | 0.00 | 65 | 986.9 |
| 20260906081511 | 80 | 197 | 2.6 | 5.2 | 0.00 | 0.00 | 0.00 | 64 | 986.8 |
| 20260906080008 | 80 | 194 | 2.6 | 5.2 | 0.00 | 0.00 | 0.00 | 65 | 986.9 |
| 20260906074507 | 81 | 194 | 3.5 | 6.1 | 0.00 | 0.00 | 0.00 | 65 | 987.1 |
| 20260906073109 | 81 | 193 | 3.5 | 6.1 | 0.00 | 0.00 | 0.00 | 65 | 987.2 |
| 20260906071555 | 81 | 185 | 4.3 | 6.1 | 0.00 | 0.00 | 0.00 | 65 | 987.5 |
| 20260906070055 | 81 | 202 | 5.2 | 7.0 | 0.00 | 0.00 | 0.00 | 66 | 987.5 |
| 20260906064554 | 81 | 196 | 5.2 | 7.8 | 0.00 | 0.00 | 0.00 | 66 | 987.6 |
| 20260906063053 | 81 | 194 | 3.5 | 7.0 | 0.00 | 0.00 | 0.00 | 67 | 987.9 |
| 20260906061553 | 82 | 189 | 4.3 | 7.8 | 0.00 | 0.00 | 0.00 | 67 | 987.8 |
| 20260906060052 | 82 | 192 | 3.5 | 6.1 | 0.00 | 0.00 | 0.00 | 67 | 987.9 |
| 20260906054552 | 82 | 192 | 3.5 | 6.1 | 0.00 | 0.00 | 0.00 | 67 | 987.8 |
| 20260906053052 | 82 | 185 | 4.3 | 7.0 | 0.00 | 0.00 | 0.00 | 67 | 988.0 |
| 20260906051551 | 83 | 194 | 4.3 | 7.0 | 0.00 | 0.00 | 0.00 | 67 | 987.8 |
| 20260906050040 | 83 | 202 | 5.2 | 8.7 | 0.00 | 0.00 | 0.00 | 67 | 987.9 |
| 20260906044515 | 83 | 194 | 7.0 | 9.6 | 0.00 | 0.00 | 0.00 | 67 | 987.9 |
| 20260906043017 | 83 | 170 | 6.1 | 8.7 | 0.00 | 0.00 | 0.00 | 67 | 987.9 |
| 20260906041603 | 83 | 153 | 4.3 | 8.7 | 0.00 | 0.00 | 0.00 | 67 | 988.0 |
| 20260906040057 | 84 | 155 | 7.0 | 9.6 | 0.00 | 0.00 | 0.00 | 67 | 987.8 |
| 20260906034550 | 84 | 154 | 5.2 | 10.4 | 0.00 | 0.00 | 0.00 | 66 | 987.9 |
| 20260906033038 | 84 | 142 | 5.2 | 9.6 | 0.00 | 0.00 | 0.00 | 66 | 987.9 |
| 20260906031529 | 85 | 148 | 4.3 | 10.4 | 0.00 | 0.00 | 0.00 | 65 | 987.8 |
| 20260906030021 | 85 | 142 | 6.1 | 11.3 | 0.00 | 0.00 | 0.00 | 65 | 987.6 |
| 20260906024609 | 86 | 144 | 7.0 | 12.2 | 0.00 | 0.00 | 0.00 | 63 | 987.4 |
| 20260906023007 | 86 | 135 | 7.0 | 13.0 | 0.00 | 0.00 | 0.00 | 63 | 987.0 |
| 20260906021507 | 87 | 142 | 7.8 | 12.2 | 0.00 | 0.00 | 0.00 | 60 | 986.7 |
| 20260906020006 | 88 | 130 | 7.8 | 12.2 | 0.00 | 0.00 | 0.00 | 56 | 986.3 |
| 20260906014505 | 89 | 118 | 6.1 | 10.4 | 0.00 | 0.00 | 0.00 | 54 | 986.2 |
| 20260906013004 | 89 | 121 | 4.3 | 10.4 | 0.00 | 0.00 | 0.00 | 53 | 986.1 |
| 20260906011504 | 90 | 127 | 6.1 | 11.3 | 0.00 | 0.00 | 0.00 | 53 | 985.9 |
| 20260906010003 | 91 | 119 | 5.2 | 13.9 | 0.00 | 0.00 | 0.00 | 52 | 985.7 |
| 20260906004554 | 92 | 129 | 7.0 | 13.9 | 0.00 | 0.00 | 0.00 | 48 | 985.9 |
| 20260906003049 | 93 | 119 | 7.0 | 10.4 | 0.00 | 0.00 | 0.00 | 48 | 985.7 |
| 20260906001647 | 94 | 144 | 7.8 | 11.3 | 0.00 | 0.00 | 0.00 | 47 | 985.6 |
| 20260906000052 | 95 | 121 | 5.2 | 12.2 | 0.00 | 0.00 | 0.00 | 47 | 985.6 |
| 20260905234550 | 96 | 140 | 7.8 | 13.0 | 0.00 | 0.00 | 0.00 | 46 | 985.6 |
| 20260905233046 | 96 | 114 | 5.2 | 13.9 | 0.00 | 0.00 | 0.00 | 45 | 985.4 |
| 20260905231544 | 96 | 56 | 5.2 | 13.0 | 0.00 | 0.00 | 0.00 | 45 | 985.3 |
| 20260905230044 | 96 | 94 | 5.2 | 11.3 | 0.00 | 0.00 | 0.00 | 45 | 985.3 |
| 20260905224530 | 96 | 106 | 7.0 | 12.2 | 0.00 | 0.00 | 0.00 | 46 | 985.3 |
| 20260905223029 | 96 | 110 | 5.2 | 13.0 | 0.00 | 0.00 | 0.00 | 45 | 985.4 |
| 20260905221528 | 97 | 86 | 4.3 | 10.4 | 0.00 | 0.00 | 0.00 | 42 | 985.2 |
| 20260905220030 | 97 | 86 | 1.7 | 6.1 | 0.00 | 0.00 | 0.00 | 39 | 985.3 |
| 20260905214529 | 98 | 110 | 3.5 | 8.7 | 0.00 | 0.00 | 0.00 | 38 | 985.3 |
| 20260905213024 | 98 | 103 | 4.3 | 7.8 | 0.00 | 0.00 | 0.00 | 38 | 985.5 |
| 20260905211522 | 98 | 80 | 5.2 | 10.4 | 0.00 | 0.00 | 0.00 | 38 | 985.6 |
| 20260905210034 | 98 | 100 | 2.6 | 7.0 | 0.00 | 0.00 | 0.00 | 40 | 985.9 |
| 20260905204504 | 97 | 234 | 6.1 | 8.7 | 0.00 | 0.00 | 0.00 | 40 | 986.1 |
| 20260905203002 | 97 | 193 | 6.1 | 9.6 | 0.00 | 0.00 | 0.00 | 40 | 986.4 |
| 20260905201600 | 96 | 262 | 0.9 | 9.6 | 0.00 | 0.00 | 0.00 | 42 | 986.5 |
| 20260905200105 | 96 | 139 | 5.2 | 11.3 | 0.00 | 0.00 | 0.00 | 42 | 986.6 |
| 20260905194553 | 95 | 219 | 1.7 | 11.3 | 0.00 | 0.00 | 0.00 | 44 | 986.9 |
| 20260905193050 | 94 | 114 | 2.6 | 9.6 | 0.00 | 0.00 | 0.00 | 46 | 987.2 |
| 20260905191548 | 95 | 195 | 4.3 | 8.7 | 0.00 | 0.00 | 0.00 | 45 | 987.5 |
| 20260905190047 | 94 | 189 | 4.3 | 8.7 | 0.00 | 0.00 | 0.00 | 48 | 987.8 |
| 20260905184528 | 94 | 152 | 7.0 | 10.4 | 0.00 | 0.00 | 0.00 | 48 | 988.0 |